Index of /20260505/WXO-DD/model_rdps/10km/00/047
Name Last modified Size Description
Parent Directory -
20260505T00Z_MSC_RDPS_AbsoluteVorticity_IsbL-0250_RLatLon0.09_PT047H.grib2 2026-05-05 02:52 594K
20260505T00Z_MSC_RDPS_AbsoluteVorticity_IsbL-0500_RLatLon0.09_PT047H.grib2 2026-05-05 02:52 557K
20260505T00Z_MSC_RDPS_AbsoluteVorticity_IsbL-0700_RLatLon0.09_PT047H.grib2 2026-05-05 02:52 615K
20260505T00Z_MSC_RDPS_AbsoluteVorticity_IsbL-0850_RLatLon0.09_PT047H.grib2 2026-05-05 02:52 780K
20260505T00Z_MSC_RDPS_AirTemp_AGL-120m_RLatLon0.09_PT047H.grib2 2026-05-05 02:52 389K
20260505T00Z_MSC_RDPS_AirTemp_AGL-2m_RLatLon0.09_PT047H.grib2 2026-05-05 02:52 621K
20260505T00Z_MSC_RDPS_AirTemp_AGL-40m_RLatLon0.09_PT047H.grib2 2026-05-05 02:52 399K
20260505T00Z_MSC_RDPS_AirTemp_AGL-80m_RLatLon0.09_PT047H.grib2 2026-05-05 02:52 393K
20260505T00Z_MSC_RDPS_AirTemp_IsbL-0001_RLatLon0.09_PT047H.grib2 2026-05-05 02:52 305K
20260505T00Z_MSC_RDPS_AirTemp_IsbL-0005_RLatLon0.09_PT047H.grib2 2026-05-05 02:52 289K
20260505T00Z_MSC_RDPS_AirTemp_IsbL-0010_RLatLon0.09_PT047H.grib2 2026-05-05 02:52 300K
20260505T00Z_MSC_RDPS_AirTemp_IsbL-0020_RLatLon0.09_PT047H.grib2 2026-05-05 02:52 319K
20260505T00Z_MSC_RDPS_AirTemp_IsbL-0030_RLatLon0.09_PT047H.grib2 2026-05-05 02:52 335K
20260505T00Z_MSC_RDPS_AirTemp_IsbL-0050_RLatLon0.09_PT047H.grib2 2026-05-05 02:52 313K
20260505T00Z_MSC_RDPS_AirTemp_IsbL-0100_RLatLon0.09_PT047H.grib2 2026-05-05 02:52 419K
20260505T00Z_MSC_RDPS_AirTemp_IsbL-0150_RLatLon0.09_PT047H.grib2 2026-05-05 02:52 410K
20260505T00Z_MSC_RDPS_AirTemp_IsbL-0175_RLatLon0.09_PT047H.grib2 2026-05-05 02:52 405K
20260505T00Z_MSC_RDPS_AirTemp_IsbL-0200_RLatLon0.09_PT047H.grib2 2026-05-05 02:52 413K
20260505T00Z_MSC_RDPS_AirTemp_IsbL-0225_RLatLon0.09_PT047H.grib2 2026-05-05 02:52 414K
20260505T00Z_MSC_RDPS_AirTemp_IsbL-0250_RLatLon0.09_PT047H.grib2 2026-05-05 02:52 420K
20260505T00Z_MSC_RDPS_AirTemp_IsbL-0275_RLatLon0.09_PT047H.grib2 2026-05-05 02:52 399K
20260505T00Z_MSC_RDPS_AirTemp_IsbL-0300_RLatLon0.09_PT047H.grib2 2026-05-05 02:52 407K
20260505T00Z_MSC_RDPS_AirTemp_IsbL-0350_RLatLon0.09_PT047H.grib2 2026-05-05 02:52 423K
20260505T00Z_MSC_RDPS_AirTemp_IsbL-0400_RLatLon0.09_PT047H.grib2 2026-05-05 02:52 426K
20260505T00Z_MSC_RDPS_AirTemp_IsbL-0450_RLatLon0.09_PT047H.grib2 2026-05-05 02:52 434K
20260505T00Z_MSC_RDPS_AirTemp_IsbL-0500_RLatLon0.09_PT047H.grib2 2026-05-05 02:52 444K
20260505T00Z_MSC_RDPS_AirTemp_IsbL-0550_RLatLon0.09_PT047H.grib2 2026-05-05 02:52 425K
20260505T00Z_MSC_RDPS_AirTemp_IsbL-0600_RLatLon0.09_PT047H.grib2 2026-05-05 02:52 443K
20260505T00Z_MSC_RDPS_AirTemp_IsbL-0650_RLatLon0.09_PT047H.grib2 2026-05-05 02:52 458K
20260505T00Z_MSC_RDPS_AirTemp_IsbL-0700_RLatLon0.09_PT047H.grib2 2026-05-05 02:52 483K
20260505T00Z_MSC_RDPS_AirTemp_IsbL-0750_RLatLon0.09_PT047H.grib2 2026-05-05 02:52 408K
20260505T00Z_MSC_RDPS_AirTemp_IsbL-0800_RLatLon0.09_PT047H.grib2 2026-05-05 02:52 449K
20260505T00Z_MSC_RDPS_AirTemp_IsbL-0850_RLatLon0.09_PT047H.grib2 2026-05-05 02:52 496K
20260505T00Z_MSC_RDPS_AirTemp_IsbL-0875_RLatLon0.09_PT047H.grib2 2026-05-05 02:52 517K
20260505T00Z_MSC_RDPS_AirTemp_IsbL-0900_RLatLon0.09_PT047H.grib2 2026-05-05 02:52 525K
20260505T00Z_MSC_RDPS_AirTemp_IsbL-0925_RLatLon0.09_PT047H.grib2 2026-05-05 02:52 523K
20260505T00Z_MSC_RDPS_AirTemp_IsbL-0950_RLatLon0.09_PT047H.grib2 2026-05-05 02:52 519K
20260505T00Z_MSC_RDPS_AirTemp_IsbL-0970_RLatLon0.09_PT047H.grib2 2026-05-05 02:52 514K
20260505T00Z_MSC_RDPS_AirTemp_IsbL-0985_RLatLon0.09_PT047H.grib2 2026-05-05 02:52 505K
20260505T00Z_MSC_RDPS_AirTemp_IsbL-1000_RLatLon0.09_PT047H.grib2 2026-05-05 02:52 501K
20260505T00Z_MSC_RDPS_AirTemp_IsbL-1015_RLatLon0.09_PT047H.grib2 2026-05-05 02:52 503K
20260505T00Z_MSC_RDPS_Albedo_Sfc_RLatLon0.09_PT047H.grib2 2026-05-05 02:52 152K
20260505T00Z_MSC_RDPS_CAPE_Sfc_RLatLon0.09_PT047H.grib2 2026-05-05 02:52 1.7M
20260505T00Z_MSC_RDPS_CIN_Sfc_RLatLon0.09_PT047H.grib2 2026-05-05 02:52 1.3M
20260505T00Z_MSC_RDPS_CloudWater_EAtm_RLatLon0.09_PT047H.grib2 2026-05-05 02:52 223K
20260505T00Z_MSC_RDPS_ConvectivePrecip-Accum_Sfc_RLatLon0.09_PT047H.grib2 2026-05-05 02:52 1.0M
20260505T00Z_MSC_RDPS_DewPointDepression_AGL-2m_RLatLon0.09_PT047H.grib2 2026-05-05 02:52 417K
20260505T00Z_MSC_RDPS_DewPointDepression_IsbL-0001_RLatLon0.09_PT047H.grib2 2026-05-05 02:52 193
20260505T00Z_MSC_RDPS_DewPointDepression_IsbL-0005_RLatLon0.09_PT047H.grib2 2026-05-05 02:52 193
20260505T00Z_MSC_RDPS_DewPointDepression_IsbL-0010_RLatLon0.09_PT047H.grib2 2026-05-05 02:52 193
20260505T00Z_MSC_RDPS_DewPointDepression_IsbL-0020_RLatLon0.09_PT047H.grib2 2026-05-05 02:52 193
20260505T00Z_MSC_RDPS_DewPointDepression_IsbL-0030_RLatLon0.09_PT047H.grib2 2026-05-05 02:52 193
20260505T00Z_MSC_RDPS_DewPointDepression_IsbL-0050_RLatLon0.09_PT047H.grib2 2026-05-05 02:52 78K
20260505T00Z_MSC_RDPS_DewPointDepression_IsbL-0100_RLatLon0.09_PT047H.grib2 2026-05-05 02:52 113K
20260505T00Z_MSC_RDPS_DewPointDepression_IsbL-0150_RLatLon0.09_PT047H.grib2 2026-05-05 02:52 140K
20260505T00Z_MSC_RDPS_DewPointDepression_IsbL-0175_RLatLon0.09_PT047H.grib2 2026-05-05 02:52 186K
20260505T00Z_MSC_RDPS_DewPointDepression_IsbL-0200_RLatLon0.09_PT047H.grib2 2026-05-05 02:52 226K
20260505T00Z_MSC_RDPS_DewPointDepression_IsbL-0225_RLatLon0.09_PT047H.grib2 2026-05-05 02:52 253K
20260505T00Z_MSC_RDPS_DewPointDepression_IsbL-0250_RLatLon0.09_PT047H.grib2 2026-05-05 02:52 296K
20260505T00Z_MSC_RDPS_DewPointDepression_IsbL-0275_RLatLon0.09_PT047H.grib2 2026-05-05 02:52 307K
20260505T00Z_MSC_RDPS_DewPointDepression_IsbL-0300_RLatLon0.09_PT047H.grib2 2026-05-05 02:52 326K
20260505T00Z_MSC_RDPS_DewPointDepression_IsbL-0350_RLatLon0.09_PT047H.grib2 2026-05-05 02:52 334K
20260505T00Z_MSC_RDPS_DewPointDepression_IsbL-0400_RLatLon0.09_PT047H.grib2 2026-05-05 02:52 346K
20260505T00Z_MSC_RDPS_DewPointDepression_IsbL-0450_RLatLon0.09_PT047H.grib2 2026-05-05 02:52 348K
20260505T00Z_MSC_RDPS_DewPointDepression_IsbL-0500_RLatLon0.09_PT047H.grib2 2026-05-05 02:52 350K
20260505T00Z_MSC_RDPS_DewPointDepression_IsbL-0550_RLatLon0.09_PT047H.grib2 2026-05-05 02:52 361K
20260505T00Z_MSC_RDPS_DewPointDepression_IsbL-0600_RLatLon0.09_PT047H.grib2 2026-05-05 02:52 370K
20260505T00Z_MSC_RDPS_DewPointDepression_IsbL-0650_RLatLon0.09_PT047H.grib2 2026-05-05 02:52 373K
20260505T00Z_MSC_RDPS_DewPointDepression_IsbL-0700_RLatLon0.09_PT047H.grib2 2026-05-05 02:52 384K
20260505T00Z_MSC_RDPS_DewPointDepression_IsbL-0750_RLatLon0.09_PT047H.grib2 2026-05-05 02:52 407K
20260505T00Z_MSC_RDPS_DewPointDepression_IsbL-0800_RLatLon0.09_PT047H.grib2 2026-05-05 02:52 444K
20260505T00Z_MSC_RDPS_DewPointDepression_IsbL-0850_RLatLon0.09_PT047H.grib2 2026-05-05 02:52 479K
20260505T00Z_MSC_RDPS_DewPointDepression_IsbL-0875_RLatLon0.09_PT047H.grib2 2026-05-05 02:52 477K
20260505T00Z_MSC_RDPS_DewPointDepression_IsbL-0900_RLatLon0.09_PT047H.grib2 2026-05-05 02:52 468K
20260505T00Z_MSC_RDPS_DewPointDepression_IsbL-0925_RLatLon0.09_PT047H.grib2 2026-05-05 02:52 458K
20260505T00Z_MSC_RDPS_DewPointDepression_IsbL-0950_RLatLon0.09_PT047H.grib2 2026-05-05 02:52 445K
20260505T00Z_MSC_RDPS_DewPointDepression_IsbL-0970_RLatLon0.09_PT047H.grib2 2026-05-05 02:52 435K
20260505T00Z_MSC_RDPS_DewPointDepression_IsbL-0985_RLatLon0.09_PT047H.grib2 2026-05-05 02:52 432K
20260505T00Z_MSC_RDPS_DewPointDepression_IsbL-1000_RLatLon0.09_PT047H.grib2 2026-05-05 02:52 428K
20260505T00Z_MSC_RDPS_DewPointDepression_IsbL-1015_RLatLon0.09_PT047H.grib2 2026-05-05 02:52 418K
20260505T00Z_MSC_RDPS_DewPoint_AGL-2m_RLatLon0.09_PT047H.grib2 2026-05-05 02:52 396K
20260505T00Z_MSC_RDPS_DownwardLongwaveRadiationFlux-Accum_Sfc_RLatLon0.09_PT047H.grib2 2026-05-05 02:52 370K
20260505T00Z_MSC_RDPS_DownwardShortwaveRadiationFlux-Accum_NTAtm_RLatLon0.09_PT047H.grib2 2026-05-05 02:52 176K
20260505T00Z_MSC_RDPS_DownwardShortwaveRadiationFlux-Accum_Sfc_RLatLon0.09_PT047H.grib2 2026-05-05 02:52 565K
20260505T00Z_MSC_RDPS_FreezingRain-Accum1h_Sfc_RLatLon0.09_PT047H.grib2 2026-05-05 02:52 20K
20260505T00Z_MSC_RDPS_FreezingRain-Accum_Sfc_RLatLon0.09_PT047H.grib2 2026-05-05 02:52 157K
20260505T00Z_MSC_RDPS_GeopotentialHeight_IsbL-0001_RLatLon0.09_PT047H.grib2 2026-05-05 02:52 340K
20260505T00Z_MSC_RDPS_GeopotentialHeight_IsbL-0005_RLatLon0.09_PT047H.grib2 2026-05-05 02:52 336K
20260505T00Z_MSC_RDPS_GeopotentialHeight_IsbL-0010_RLatLon0.09_PT047H.grib2 2026-05-05 02:52 337K
20260505T00Z_MSC_RDPS_GeopotentialHeight_IsbL-0020_RLatLon0.09_PT047H.grib2 2026-05-05 02:52 304K
20260505T00Z_MSC_RDPS_GeopotentialHeight_IsbL-0030_RLatLon0.09_PT047H.grib2 2026-05-05 02:52 401K
20260505T00Z_MSC_RDPS_GeopotentialHeight_IsbL-0050_RLatLon0.09_PT047H.grib2 2026-05-05 02:52 307K
20260505T00Z_MSC_RDPS_GeopotentialHeight_IsbL-0100_RLatLon0.09_PT047H.grib2 2026-05-05 02:52 287K
20260505T00Z_MSC_RDPS_GeopotentialHeight_IsbL-0150_RLatLon0.09_PT047H.grib2 2026-05-05 02:52 229K
20260505T00Z_MSC_RDPS_GeopotentialHeight_IsbL-0175_RLatLon0.09_PT047H.grib2 2026-05-05 02:52 232K
20260505T00Z_MSC_RDPS_GeopotentialHeight_IsbL-0200_RLatLon0.09_PT047H.grib2 2026-05-05 02:52 267K
20260505T00Z_MSC_RDPS_GeopotentialHeight_IsbL-0225_RLatLon0.09_PT047H.grib2 2026-05-05 02:52 268K
20260505T00Z_MSC_RDPS_GeopotentialHeight_IsbL-0250_RLatLon0.09_PT047H.grib2 2026-05-05 02:52 268K
20260505T00Z_MSC_RDPS_GeopotentialHeight_IsbL-0275_RLatLon0.09_PT047H.grib2 2026-05-05 02:52 268K
20260505T00Z_MSC_RDPS_GeopotentialHeight_IsbL-0300_RLatLon0.09_PT047H.grib2 2026-05-05 02:52 237K
20260505T00Z_MSC_RDPS_GeopotentialHeight_IsbL-0350_RLatLon0.09_PT047H.grib2 2026-05-05 02:52 233K
20260505T00Z_MSC_RDPS_GeopotentialHeight_IsbL-0400_RLatLon0.09_PT047H.grib2 2026-05-05 02:52 229K
20260505T00Z_MSC_RDPS_GeopotentialHeight_IsbL-0450_RLatLon0.09_PT047H.grib2 2026-05-05 02:52 297K
20260505T00Z_MSC_RDPS_GeopotentialHeight_IsbL-0500_RLatLon0.09_PT047H.grib2 2026-05-05 02:52 291K
20260505T00Z_MSC_RDPS_GeopotentialHeight_IsbL-0550_RLatLon0.09_PT047H.grib2 2026-05-05 02:52 288K
20260505T00Z_MSC_RDPS_GeopotentialHeight_IsbL-0600_RLatLon0.09_PT047H.grib2 2026-05-05 02:52 287K
20260505T00Z_MSC_RDPS_GeopotentialHeight_IsbL-0650_RLatLon0.09_PT047H.grib2 2026-05-05 02:52 256K
20260505T00Z_MSC_RDPS_GeopotentialHeight_IsbL-0700_RLatLon0.09_PT047H.grib2 2026-05-05 02:52 337K
20260505T00Z_MSC_RDPS_GeopotentialHeight_IsbL-0750_RLatLon0.09_PT047H.grib2 2026-05-05 02:52 339K
20260505T00Z_MSC_RDPS_GeopotentialHeight_IsbL-0800_RLatLon0.09_PT047H.grib2 2026-05-05 02:52 346K
20260505T00Z_MSC_RDPS_GeopotentialHeight_IsbL-0850_RLatLon0.09_PT047H.grib2 2026-05-05 02:52 386K
20260505T00Z_MSC_RDPS_GeopotentialHeight_IsbL-0875_RLatLon0.09_PT047H.grib2 2026-05-05 02:52 389K
20260505T00Z_MSC_RDPS_GeopotentialHeight_IsbL-0900_RLatLon0.09_PT047H.grib2 2026-05-05 02:52 393K
20260505T00Z_MSC_RDPS_GeopotentialHeight_IsbL-0925_RLatLon0.09_PT047H.grib2 2026-05-05 02:52 364K
20260505T00Z_MSC_RDPS_GeopotentialHeight_IsbL-0950_RLatLon0.09_PT047H.grib2 2026-05-05 02:52 366K
20260505T00Z_MSC_RDPS_GeopotentialHeight_IsbL-0970_RLatLon0.09_PT047H.grib2 2026-05-05 02:52 370K
20260505T00Z_MSC_RDPS_GeopotentialHeight_IsbL-0985_RLatLon0.09_PT047H.grib2 2026-05-05 02:52 379K
20260505T00Z_MSC_RDPS_GeopotentialHeight_IsbL-1000_RLatLon0.09_PT047H.grib2 2026-05-05 02:52 391K
20260505T00Z_MSC_RDPS_GeopotentialHeight_IsbL-1015_RLatLon0.09_PT047H.grib2 2026-05-05 02:52 406K
20260505T00Z_MSC_RDPS_Humidex_Sfc_RLatLon0.09_PT047H.grib2 2026-05-05 02:52 2.4M
20260505T00Z_MSC_RDPS_IcePellets-Accum1h_Sfc_RLatLon0.09_PT047H.grib2 2026-05-05 02:52 5.2K
20260505T00Z_MSC_RDPS_IcePellets-Accum_Sfc_RLatLon0.09_PT047H.grib2 2026-05-05 02:52 35K
20260505T00Z_MSC_RDPS_KIndex_Sfc_RLatLon0.09_PT047H.grib2 2026-05-05 02:52 2.5M
20260505T00Z_MSC_RDPS_LatentHeatNetFlux_Sfc_RLatLon0.09_PT047H.grib2 2026-05-05 02:52 373K
20260505T00Z_MSC_RDPS_LiftedIndex-MU-VT_IsbL-0500_RLatLon0.09_PT047H.grib2 2026-05-05 02:52 2.4M
20260505T00Z_MSC_RDPS_NetLongwaveRadiationFlux-Accum_Sfc_RLatLon0.09_PT047H.grib2 2026-05-05 02:52 544K
20260505T00Z_MSC_RDPS_NetShortwaveRadiationFlux-Accum_Sfc_RLatLon0.09_PT047H.grib2 2026-05-05 02:52 561K
20260505T00Z_MSC_RDPS_PlanetaryBoundaryLayerHeight_Sfc_RLatLon0.09_PT047H.grib2 2026-05-05 02:52 1.0M
20260505T00Z_MSC_RDPS_Precip-Accum1h_Sfc_RLatLon0.09_PT047H.grib2 2026-05-05 02:52 1.2M
20260505T00Z_MSC_RDPS_Precip-Accum_Sfc_RLatLon0.09_PT047H.grib2 2026-05-05 02:52 2.1M
20260505T00Z_MSC_RDPS_PrecipRate_Sfc_RLatLon0.09_PT047H.grib2 2026-05-05 02:52 176K
20260505T00Z_MSC_RDPS_PrecipType-Instant_Sfc_RLatLon0.09_PT047H.grib2 2026-05-05 02:52 565K
20260505T00Z_MSC_RDPS_Pressure-Trend3h_Sfc_RLatLon0.09_PT047H.grib2 2026-05-05 02:52 1.2M
20260505T00Z_MSC_RDPS_Pressure_MSL_RLatLon0.09_PT047H.grib2 2026-05-05 02:52 294K
20260505T00Z_MSC_RDPS_Pressure_PVU-1.5_RLatLon0.09_PT047H.grib2 2026-05-05 02:52 2.3M
20260505T00Z_MSC_RDPS_Pressure_PVU-1_RLatLon0.09_PT047H.grib2 2026-05-05 02:52 2.4M
20260505T00Z_MSC_RDPS_Pressure_PVU-2_RLatLon0.09_PT047H.grib2 2026-05-05 02:52 2.4M
20260505T00Z_MSC_RDPS_Pressure_Sfc_RLatLon0.09_PT047H.grib2 2026-05-05 02:52 497K
20260505T00Z_MSC_RDPS_RadiativeTemp_Sfc_RLatLon0.09_PT047H.grib2 2026-05-05 02:52 317K
20260505T00Z_MSC_RDPS_Rain-Accum1h_Sfc_RLatLon0.09_PT047H.grib2 2026-05-05 02:52 603K
20260505T00Z_MSC_RDPS_Rain-Accum_Sfc_RLatLon0.09_PT047H.grib2 2026-05-05 02:52 1.7M
20260505T00Z_MSC_RDPS_RelativeHumidity_AGL-2m_RLatLon0.09_PT047H.grib2 2026-05-05 02:52 1.0M
20260505T00Z_MSC_RDPS_RelativeHumidity_IsbL-0010_RLatLon0.09_PT047H.grib2 2026-05-05 02:52 571K
20260505T00Z_MSC_RDPS_RelativeHumidity_IsbL-0020_RLatLon0.09_PT047H.grib2 2026-05-05 02:52 649K
20260505T00Z_MSC_RDPS_RelativeHumidity_IsbL-0030_RLatLon0.09_PT047H.grib2 2026-05-05 02:52 601K
20260505T00Z_MSC_RDPS_RelativeHumidity_IsbL-0050_RLatLon0.09_PT047H.grib2 2026-05-05 02:52 358K
20260505T00Z_MSC_RDPS_RelativeHumidity_IsbL-0100_RLatLon0.09_PT047H.grib2 2026-05-05 02:52 275K
20260505T00Z_MSC_RDPS_RelativeHumidity_IsbL-0150_RLatLon0.09_PT047H.grib2 2026-05-05 02:52 414K
20260505T00Z_MSC_RDPS_RelativeHumidity_IsbL-0175_RLatLon0.09_PT047H.grib2 2026-05-05 02:52 475K
20260505T00Z_MSC_RDPS_RelativeHumidity_IsbL-0200_RLatLon0.09_PT047H.grib2 2026-05-05 02:52 548K
20260505T00Z_MSC_RDPS_RelativeHumidity_IsbL-0225_RLatLon0.09_PT047H.grib2 2026-05-05 02:52 608K
20260505T00Z_MSC_RDPS_RelativeHumidity_IsbL-0250_RLatLon0.09_PT047H.grib2 2026-05-05 02:52 668K
20260505T00Z_MSC_RDPS_RelativeHumidity_IsbL-0275_RLatLon0.09_PT047H.grib2 2026-05-05 02:52 697K
20260505T00Z_MSC_RDPS_RelativeHumidity_IsbL-0300_RLatLon0.09_PT047H.grib2 2026-05-05 02:52 746K
20260505T00Z_MSC_RDPS_RelativeHumidity_IsbL-0350_RLatLon0.09_PT047H.grib2 2026-05-05 02:52 775K
20260505T00Z_MSC_RDPS_RelativeHumidity_IsbL-0400_RLatLon0.09_PT047H.grib2 2026-05-05 02:52 792K
20260505T00Z_MSC_RDPS_RelativeHumidity_IsbL-0450_RLatLon0.09_PT047H.grib2 2026-05-05 02:52 794K
20260505T00Z_MSC_RDPS_RelativeHumidity_IsbL-0500_RLatLon0.09_PT047H.grib2 2026-05-05 02:52 795K
20260505T00Z_MSC_RDPS_RelativeHumidity_IsbL-0550_RLatLon0.09_PT047H.grib2 2026-05-05 02:52 813K
20260505T00Z_MSC_RDPS_RelativeHumidity_IsbL-0600_RLatLon0.09_PT047H.grib2 2026-05-05 02:52 832K
20260505T00Z_MSC_RDPS_RelativeHumidity_IsbL-0650_RLatLon0.09_PT047H.grib2 2026-05-05 02:52 844K
20260505T00Z_MSC_RDPS_RelativeHumidity_IsbL-0700_RLatLon0.09_PT047H.grib2 2026-05-05 02:52 871K
20260505T00Z_MSC_RDPS_RelativeHumidity_IsbL-0750_RLatLon0.09_PT047H.grib2 2026-05-05 02:52 913K
20260505T00Z_MSC_RDPS_RelativeHumidity_IsbL-0800_RLatLon0.09_PT047H.grib2 2026-05-05 02:52 1.0M
20260505T00Z_MSC_RDPS_RelativeHumidity_IsbL-0850_RLatLon0.09_PT047H.grib2 2026-05-05 02:52 1.0M
20260505T00Z_MSC_RDPS_RelativeHumidity_IsbL-0875_RLatLon0.09_PT047H.grib2 2026-05-05 02:52 1.1M
20260505T00Z_MSC_RDPS_RelativeHumidity_IsbL-0900_RLatLon0.09_PT047H.grib2 2026-05-05 02:52 1.1M
20260505T00Z_MSC_RDPS_RelativeHumidity_IsbL-0925_RLatLon0.09_PT047H.grib2 2026-05-05 02:52 1.1M
20260505T00Z_MSC_RDPS_RelativeHumidity_IsbL-0950_RLatLon0.09_PT047H.grib2 2026-05-05 02:52 1.1M
20260505T00Z_MSC_RDPS_RelativeHumidity_IsbL-0970_RLatLon0.09_PT047H.grib2 2026-05-05 02:52 1.0M
20260505T00Z_MSC_RDPS_RelativeHumidity_IsbL-0985_RLatLon0.09_PT047H.grib2 2026-05-05 02:52 1.0M
20260505T00Z_MSC_RDPS_RelativeHumidity_IsbL-1000_RLatLon0.09_PT047H.grib2 2026-05-05 02:52 1.0M
20260505T00Z_MSC_RDPS_RelativeHumidity_IsbL-1015_RLatLon0.09_PT047H.grib2 2026-05-05 02:52 1.0M
20260505T00Z_MSC_RDPS_Runoff-Accum_Sfc_RLatLon0.09_PT047H.grib2 2026-05-05 02:52 54K
20260505T00Z_MSC_RDPS_SWEATIndex_Sfc_RLatLon0.09_PT047H.grib2 2026-05-05 02:52 2.4M
20260505T00Z_MSC_RDPS_SeeingIndex_EAtm_RLatLon0.09_PT047H.grib2 2026-05-05 02:52 1.0M
20260505T00Z_MSC_RDPS_SensibleHeatNetFlux_Sfc_RLatLon0.09_PT047H.grib2 2026-05-05 02:52 332K
20260505T00Z_MSC_RDPS_ShowalterIndex_IsbL-0500_RLatLon0.09_PT047H.grib2 2026-05-05 02:52 2.6M
20260505T00Z_MSC_RDPS_SkyTransparencyIndex_EAtm_RLatLon0.09_PT047H.grib2 2026-05-05 02:52 715K
20260505T00Z_MSC_RDPS_Snow-Accum1h_Sfc_RLatLon0.09_PT047H.grib2 2026-05-05 02:52 439K
20260505T00Z_MSC_RDPS_Snow-Accum_Sfc_RLatLon0.09_PT047H.grib2 2026-05-05 02:52 787K
20260505T00Z_MSC_RDPS_SnowDensity_Sfc_RLatLon0.09_PT047H.grib2 2026-05-05 02:52 175K
20260505T00Z_MSC_RDPS_SnowDepth_Sfc_RLatLon0.09_PT047H.grib2 2026-05-05 02:52 649K
20260505T00Z_MSC_RDPS_SoilTemp_DBS-0to10cm_RLatLon0.09_PT047H.grib2 2026-05-05 02:52 241K
20260505T00Z_MSC_RDPS_SoilTemp_Sfc_RLatLon0.09_PT047H.grib2 2026-05-05 02:52 274K
20260505T00Z_MSC_RDPS_SoilVolumetricIceContent_Sfc_RLatLon0.09_PT047H.grib2 2026-05-05 02:52 150K
20260505T00Z_MSC_RDPS_SoilVolumetricWaterContent_DBS-0to10cm_RLatLon0.09_PT047H.grib2 2026-05-05 02:52 281K
20260505T00Z_MSC_RDPS_SoilVolumetricWaterContent_DBS-0to1cm_RLatLon0.09_PT047H.grib2 2026-05-05 02:52 342K
20260505T00Z_MSC_RDPS_SpecificHumidity_AGL-120m_RLatLon0.09_PT047H.grib2 2026-05-05 02:52 494K
20260505T00Z_MSC_RDPS_SpecificHumidity_AGL-2m_RLatLon0.09_PT047H.grib2 2026-05-05 02:52 665K
20260505T00Z_MSC_RDPS_SpecificHumidity_AGL-40m_RLatLon0.09_PT047H.grib2 2026-05-05 02:52 499K
20260505T00Z_MSC_RDPS_SpecificHumidity_AGL-80m_RLatLon0.09_PT047H.grib2 2026-05-05 02:52 495K
20260505T00Z_MSC_RDPS_SpecificHumidity_IsbL-0001_RLatLon0.09_PT047H.grib2 2026-05-05 02:52 411K
20260505T00Z_MSC_RDPS_SpecificHumidity_IsbL-0005_RLatLon0.09_PT047H.grib2 2026-05-05 02:52 373K
20260505T00Z_MSC_RDPS_SpecificHumidity_IsbL-0010_RLatLon0.09_PT047H.grib2 2026-05-05 02:52 406K
20260505T00Z_MSC_RDPS_SpecificHumidity_IsbL-0020_RLatLon0.09_PT047H.grib2 2026-05-05 02:52 383K
20260505T00Z_MSC_RDPS_SpecificHumidity_IsbL-0030_RLatLon0.09_PT047H.grib2 2026-05-05 02:52 369K
20260505T00Z_MSC_RDPS_SpecificHumidity_IsbL-0050_RLatLon0.09_PT047H.grib2 2026-05-05 02:52 477K
20260505T00Z_MSC_RDPS_SpecificHumidity_IsbL-0100_RLatLon0.09_PT047H.grib2 2026-05-05 02:52 448K
20260505T00Z_MSC_RDPS_SpecificHumidity_IsbL-0150_RLatLon0.09_PT047H.grib2 2026-05-05 02:52 461K
20260505T00Z_MSC_RDPS_SpecificHumidity_IsbL-0175_RLatLon0.09_PT047H.grib2 2026-05-05 02:52 448K
20260505T00Z_MSC_RDPS_SpecificHumidity_IsbL-0200_RLatLon0.09_PT047H.grib2 2026-05-05 02:52 474K
20260505T00Z_MSC_RDPS_SpecificHumidity_IsbL-0225_RLatLon0.09_PT047H.grib2 2026-05-05 02:52 449K
20260505T00Z_MSC_RDPS_SpecificHumidity_IsbL-0250_RLatLon0.09_PT047H.grib2 2026-05-05 02:52 548K
20260505T00Z_MSC_RDPS_SpecificHumidity_IsbL-0275_RLatLon0.09_PT047H.grib2 2026-05-05 02:52 467K
20260505T00Z_MSC_RDPS_SpecificHumidity_IsbL-0300_RLatLon0.09_PT047H.grib2 2026-05-05 02:52 568K
20260505T00Z_MSC_RDPS_SpecificHumidity_IsbL-0350_RLatLon0.09_PT047H.grib2 2026-05-05 02:52 541K
20260505T00Z_MSC_RDPS_SpecificHumidity_IsbL-0400_RLatLon0.09_PT047H.grib2 2026-05-05 02:52 526K
20260505T00Z_MSC_RDPS_SpecificHumidity_IsbL-0450_RLatLon0.09_PT047H.grib2 2026-05-05 02:52 575K
20260505T00Z_MSC_RDPS_SpecificHumidity_IsbL-0500_RLatLon0.09_PT047H.grib2 2026-05-05 02:52 505K
20260505T00Z_MSC_RDPS_SpecificHumidity_IsbL-0550_RLatLon0.09_PT047H.grib2 2026-05-05 02:52 579K
20260505T00Z_MSC_RDPS_SpecificHumidity_IsbL-0600_RLatLon0.09_PT047H.grib2 2026-05-05 02:52 631K
20260505T00Z_MSC_RDPS_SpecificHumidity_IsbL-0650_RLatLon0.09_PT047H.grib2 2026-05-05 02:52 548K
20260505T00Z_MSC_RDPS_SpecificHumidity_IsbL-0700_RLatLon0.09_PT047H.grib2 2026-05-05 02:52 592K
20260505T00Z_MSC_RDPS_SpecificHumidity_IsbL-0750_RLatLon0.09_PT047H.grib2 2026-05-05 02:52 660K
20260505T00Z_MSC_RDPS_SpecificHumidity_IsbL-0800_RLatLon0.09_PT047H.grib2 2026-05-05 02:52 733K
20260505T00Z_MSC_RDPS_SpecificHumidity_IsbL-0850_RLatLon0.09_PT047H.grib2 2026-05-05 02:52 813K
20260505T00Z_MSC_RDPS_SpecificHumidity_IsbL-0875_RLatLon0.09_PT047H.grib2 2026-05-05 02:52 839K
20260505T00Z_MSC_RDPS_SpecificHumidity_IsbL-0900_RLatLon0.09_PT047H.grib2 2026-05-05 02:52 712K
20260505T00Z_MSC_RDPS_SpecificHumidity_IsbL-0925_RLatLon0.09_PT047H.grib2 2026-05-05 02:52 716K
20260505T00Z_MSC_RDPS_SpecificHumidity_IsbL-0950_RLatLon0.09_PT047H.grib2 2026-05-05 02:52 714K
20260505T00Z_MSC_RDPS_SpecificHumidity_IsbL-0970_RLatLon0.09_PT047H.grib2 2026-05-05 02:52 704K
20260505T00Z_MSC_RDPS_SpecificHumidity_IsbL-0985_RLatLon0.09_PT047H.grib2 2026-05-05 02:52 696K
20260505T00Z_MSC_RDPS_SpecificHumidity_IsbL-1000_RLatLon0.09_PT047H.grib2 2026-05-05 02:52 692K
20260505T00Z_MSC_RDPS_SpecificHumidity_IsbL-1015_RLatLon0.09_PT047H.grib2 2026-05-05 02:52 679K
20260505T00Z_MSC_RDPS_SpecificHumidity_Sfc_RLatLon0.09_PT047H.grib2 2026-05-05 02:52 341K
20260505T00Z_MSC_RDPS_StormRelativeHelicity_EtaL-10000_RLatLon0.09_PT047H.grib2 2026-05-05 02:52 1.1M
20260505T00Z_MSC_RDPS_StormSeverityIndex_EtaL-10000_RLatLon0.09_PT047H.grib2 2026-05-05 02:52 1.2M
20260505T00Z_MSC_RDPS_Thickness_IsbL-0850to0700_RLatLon0.09_PT047H.grib2 2026-05-05 02:52 175K
20260505T00Z_MSC_RDPS_Thickness_IsbL-1000to0500_RLatLon0.09_PT047H.grib2 2026-05-05 02:52 194K
20260505T00Z_MSC_RDPS_Thickness_IsbL-1000to0850_RLatLon0.09_PT047H.grib2 2026-05-05 02:52 183K
20260505T00Z_MSC_RDPS_TotalCloudCover_Sfc_RLatLon0.09_PT047H.grib2 2026-05-05 02:52 652K
20260505T00Z_MSC_RDPS_TotalTotalsIndex_Sfc_RLatLon0.09_PT047H.grib2 2026-05-05 02:52 2.4M
20260505T00Z_MSC_RDPS_UVIndex-ClearSky_Sfc_RLatLon0.09_PT047H.grib2 2026-05-05 02:52 205K
20260505T00Z_MSC_RDPS_UVIndex_Sfc_RLatLon0.09_PT047H.grib2 2026-05-05 02:52 443K
20260505T00Z_MSC_RDPS_UpwardLongwaveRadiationFlux_NTAtm_RLatLon0.09_PT047H.grib2 2026-05-05 02:52 491K
20260505T00Z_MSC_RDPS_UpwardShortwaveRadiationFlux_NTAtm_RLatLon0.09_PT047H.grib2 2026-05-05 02:52 395K
20260505T00Z_MSC_RDPS_VerticalVelocity_IsbL-0250_RLatLon0.09_PT047H.grib2 2026-05-05 02:52 578K
20260505T00Z_MSC_RDPS_VerticalVelocity_IsbL-0500_RLatLon0.09_PT047H.grib2 2026-05-05 02:52 544K
20260505T00Z_MSC_RDPS_VerticalVelocity_IsbL-0700_RLatLon0.09_PT047H.grib2 2026-05-05 02:52 593K
20260505T00Z_MSC_RDPS_VerticalVelocity_IsbL-0850_RLatLon0.09_PT047H.grib2 2026-05-05 02:52 693K
20260505T00Z_MSC_RDPS_VerticalWindShear_EtaL-6500_RLatLon0.09_PT047H.grib2 2026-05-05 02:52 1.2M
20260505T00Z_MSC_RDPS_WindChill_Sfc_RLatLon0.09_PT047H.grib2 2026-05-05 02:52 1.1M
20260505T00Z_MSC_RDPS_WindDir_AGL-10m_RLatLon0.09_PT047H.grib2 2026-05-05 02:52 937K
20260505T00Z_MSC_RDPS_WindDir_AGL-120m_RLatLon0.09_PT047H.grib2 2026-05-05 02:52 586K
20260505T00Z_MSC_RDPS_WindDir_AGL-40m_RLatLon0.09_PT047H.grib2 2026-05-05 02:52 608K
20260505T00Z_MSC_RDPS_WindDir_AGL-80m_RLatLon0.09_PT047H.grib2 2026-05-05 02:52 595K
20260505T00Z_MSC_RDPS_WindDir_IsbL-0001_RLatLon0.09_PT047H.grib2 2026-05-05 02:52 296K
20260505T00Z_MSC_RDPS_WindDir_IsbL-0005_RLatLon0.09_PT047H.grib2 2026-05-05 02:52 375K
20260505T00Z_MSC_RDPS_WindDir_IsbL-0010_RLatLon0.09_PT047H.grib2 2026-05-05 02:52 376K
20260505T00Z_MSC_RDPS_WindDir_IsbL-0020_RLatLon0.09_PT047H.grib2 2026-05-05 02:52 402K
20260505T00Z_MSC_RDPS_WindDir_IsbL-0030_RLatLon0.09_PT047H.grib2 2026-05-05 02:52 397K
20260505T00Z_MSC_RDPS_WindDir_IsbL-0050_RLatLon0.09_PT047H.grib2 2026-05-05 02:52 424K
20260505T00Z_MSC_RDPS_WindDir_IsbL-0100_RLatLon0.09_PT047H.grib2 2026-05-05 02:52 418K
20260505T00Z_MSC_RDPS_WindDir_IsbL-0150_RLatLon0.09_PT047H.grib2 2026-05-05 02:52 415K
20260505T00Z_MSC_RDPS_WindDir_IsbL-0175_RLatLon0.09_PT047H.grib2 2026-05-05 02:52 437K
20260505T00Z_MSC_RDPS_WindDir_IsbL-0200_RLatLon0.09_PT047H.grib2 2026-05-05 02:52 454K
20260505T00Z_MSC_RDPS_WindDir_IsbL-0225_RLatLon0.09_PT047H.grib2 2026-05-05 02:52 463K
20260505T00Z_MSC_RDPS_WindDir_IsbL-0250_RLatLon0.09_PT047H.grib2 2026-05-05 02:52 455K
20260505T00Z_MSC_RDPS_WindDir_IsbL-0275_RLatLon0.09_PT047H.grib2 2026-05-05 02:52 471K
20260505T00Z_MSC_RDPS_WindDir_IsbL-0300_RLatLon0.09_PT047H.grib2 2026-05-05 02:52 468K
20260505T00Z_MSC_RDPS_WindDir_IsbL-0350_RLatLon0.09_PT047H.grib2 2026-05-05 02:52 495K
20260505T00Z_MSC_RDPS_WindDir_IsbL-0400_RLatLon0.09_PT047H.grib2 2026-05-05 02:52 517K
20260505T00Z_MSC_RDPS_WindDir_IsbL-0450_RLatLon0.09_PT047H.grib2 2026-05-05 02:52 529K
20260505T00Z_MSC_RDPS_WindDir_IsbL-0500_RLatLon0.09_PT047H.grib2 2026-05-05 02:52 542K
20260505T00Z_MSC_RDPS_WindDir_IsbL-0550_RLatLon0.09_PT047H.grib2 2026-05-05 02:52 557K
20260505T00Z_MSC_RDPS_WindDir_IsbL-0600_RLatLon0.09_PT047H.grib2 2026-05-05 02:52 586K
20260505T00Z_MSC_RDPS_WindDir_IsbL-0650_RLatLon0.09_PT047H.grib2 2026-05-05 02:52 631K
20260505T00Z_MSC_RDPS_WindDir_IsbL-0700_RLatLon0.09_PT047H.grib2 2026-05-05 02:52 677K
20260505T00Z_MSC_RDPS_WindDir_IsbL-0750_RLatLon0.09_PT047H.grib2 2026-05-05 02:52 720K
20260505T00Z_MSC_RDPS_WindDir_IsbL-0800_RLatLon0.09_PT047H.grib2 2026-05-05 02:52 777K
20260505T00Z_MSC_RDPS_WindDir_IsbL-0850_RLatLon0.09_PT047H.grib2 2026-05-05 02:52 844K
20260505T00Z_MSC_RDPS_WindDir_IsbL-0875_RLatLon0.09_PT047H.grib2 2026-05-05 02:52 867K
20260505T00Z_MSC_RDPS_WindDir_IsbL-0900_RLatLon0.09_PT047H.grib2 2026-05-05 02:52 880K
20260505T00Z_MSC_RDPS_WindDir_IsbL-0925_RLatLon0.09_PT047H.grib2 2026-05-05 02:52 890K
20260505T00Z_MSC_RDPS_WindDir_IsbL-0950_RLatLon0.09_PT047H.grib2 2026-05-05 02:52 891K
20260505T00Z_MSC_RDPS_WindDir_IsbL-0970_RLatLon0.09_PT047H.grib2 2026-05-05 02:52 894K
20260505T00Z_MSC_RDPS_WindDir_IsbL-0985_RLatLon0.09_PT047H.grib2 2026-05-05 02:52 901K
20260505T00Z_MSC_RDPS_WindDir_IsbL-1000_RLatLon0.09_PT047H.grib2 2026-05-05 02:52 913K
20260505T00Z_MSC_RDPS_WindDir_IsbL-1015_RLatLon0.09_PT047H.grib2 2026-05-05 02:52 928K
20260505T00Z_MSC_RDPS_WindGust-Max_AGL-10m_RLatLon0.09_PT047H.grib2 2026-05-05 02:52 1.0M
20260505T00Z_MSC_RDPS_WindGust-Min_AGL-10m_RLatLon0.09_PT047H.grib2 2026-05-05 02:52 1.0M
20260505T00Z_MSC_RDPS_WindGust_AGL-10m_RLatLon0.09_PT047H.grib2 2026-05-05 02:52 1.0M
20260505T00Z_MSC_RDPS_WindSpeed_AGL-10m_RLatLon0.09_PT047H.grib2 2026-05-05 02:52 834K
20260505T00Z_MSC_RDPS_WindSpeed_AGL-120m_RLatLon0.09_PT047H.grib2 2026-05-05 02:52 529K
20260505T00Z_MSC_RDPS_WindSpeed_AGL-40m_RLatLon0.09_PT047H.grib2 2026-05-05 02:52 536K
20260505T00Z_MSC_RDPS_WindSpeed_AGL-80m_RLatLon0.09_PT047H.grib2 2026-05-05 02:52 531K
20260505T00Z_MSC_RDPS_WindSpeed_IsbL-0001_RLatLon0.09_PT047H.grib2 2026-05-05 02:52 253K
20260505T00Z_MSC_RDPS_WindSpeed_IsbL-0005_RLatLon0.09_PT047H.grib2 2026-05-05 02:52 294K
20260505T00Z_MSC_RDPS_WindSpeed_IsbL-0010_RLatLon0.09_PT047H.grib2 2026-05-05 02:52 399K
20260505T00Z_MSC_RDPS_WindSpeed_IsbL-0020_RLatLon0.09_PT047H.grib2 2026-05-05 02:52 420K
20260505T00Z_MSC_RDPS_WindSpeed_IsbL-0030_RLatLon0.09_PT047H.grib2 2026-05-05 02:52 318K
20260505T00Z_MSC_RDPS_WindSpeed_IsbL-0050_RLatLon0.09_PT047H.grib2 2026-05-05 02:52 349K
20260505T00Z_MSC_RDPS_WindSpeed_IsbL-0100_RLatLon0.09_PT047H.grib2 2026-05-05 02:52 435K
20260505T00Z_MSC_RDPS_WindSpeed_IsbL-0150_RLatLon0.09_PT047H.grib2 2026-05-05 02:52 401K
20260505T00Z_MSC_RDPS_WindSpeed_IsbL-0175_RLatLon0.09_PT047H.grib2 2026-05-05 02:52 425K
20260505T00Z_MSC_RDPS_WindSpeed_IsbL-0200_RLatLon0.09_PT047H.grib2 2026-05-05 02:52 440K
20260505T00Z_MSC_RDPS_WindSpeed_IsbL-0225_RLatLon0.09_PT047H.grib2 2026-05-05 02:52 444K
20260505T00Z_MSC_RDPS_WindSpeed_IsbL-0250_RLatLon0.09_PT047H.grib2 2026-05-05 02:52 444K
20260505T00Z_MSC_RDPS_WindSpeed_IsbL-0275_RLatLon0.09_PT047H.grib2 2026-05-05 02:52 462K
20260505T00Z_MSC_RDPS_WindSpeed_IsbL-0300_RLatLon0.09_PT047H.grib2 2026-05-05 02:52 461K
20260505T00Z_MSC_RDPS_WindSpeed_IsbL-0350_RLatLon0.09_PT047H.grib2 2026-05-05 02:52 477K
20260505T00Z_MSC_RDPS_WindSpeed_IsbL-0400_RLatLon0.09_PT047H.grib2 2026-05-05 02:52 462K
20260505T00Z_MSC_RDPS_WindSpeed_IsbL-0450_RLatLon0.09_PT047H.grib2 2026-05-05 02:52 460K
20260505T00Z_MSC_RDPS_WindSpeed_IsbL-0500_RLatLon0.09_PT047H.grib2 2026-05-05 02:52 578K
20260505T00Z_MSC_RDPS_WindSpeed_IsbL-0550_RLatLon0.09_PT047H.grib2 2026-05-05 02:52 579K
20260505T00Z_MSC_RDPS_WindSpeed_IsbL-0600_RLatLon0.09_PT047H.grib2 2026-05-05 02:52 589K
20260505T00Z_MSC_RDPS_WindSpeed_IsbL-0650_RLatLon0.09_PT047H.grib2 2026-05-05 02:52 611K
20260505T00Z_MSC_RDPS_WindSpeed_IsbL-0700_RLatLon0.09_PT047H.grib2 2026-05-05 02:52 677K
20260505T00Z_MSC_RDPS_WindSpeed_IsbL-0750_RLatLon0.09_PT047H.grib2 2026-05-05 02:52 707K
20260505T00Z_MSC_RDPS_WindSpeed_IsbL-0800_RLatLon0.09_PT047H.grib2 2026-05-05 02:52 754K
20260505T00Z_MSC_RDPS_WindSpeed_IsbL-0850_RLatLon0.09_PT047H.grib2 2026-05-05 02:52 813K
20260505T00Z_MSC_RDPS_WindSpeed_IsbL-0875_RLatLon0.09_PT047H.grib2 2026-05-05 02:52 835K
20260505T00Z_MSC_RDPS_WindSpeed_IsbL-0900_RLatLon0.09_PT047H.grib2 2026-05-05 02:52 850K
20260505T00Z_MSC_RDPS_WindSpeed_IsbL-0925_RLatLon0.09_PT047H.grib2 2026-05-05 02:52 861K
20260505T00Z_MSC_RDPS_WindSpeed_IsbL-0950_RLatLon0.09_PT047H.grib2 2026-05-05 02:52 863K
20260505T00Z_MSC_RDPS_WindSpeed_IsbL-0970_RLatLon0.09_PT047H.grib2 2026-05-05 02:52 858K
20260505T00Z_MSC_RDPS_WindSpeed_IsbL-0985_RLatLon0.09_PT047H.grib2 2026-05-05 02:52 852K
20260505T00Z_MSC_RDPS_WindSpeed_IsbL-1000_RLatLon0.09_PT047H.grib2 2026-05-05 02:52 845K
20260505T00Z_MSC_RDPS_WindSpeed_IsbL-1015_RLatLon0.09_PT047H.grib2 2026-05-05 02:52 834K
20260505T00Z_MSC_RDPS_WindU_AGL-10m_RLatLon0.09_PT047H.grib2 2026-05-05 02:52 431K
20260505T00Z_MSC_RDPS_WindU_AGL-120m_RLatLon0.09_PT047H.grib2 2026-05-05 02:52 413K
20260505T00Z_MSC_RDPS_WindU_AGL-40m_RLatLon0.09_PT047H.grib2 2026-05-05 02:52 534K
20260505T00Z_MSC_RDPS_WindU_AGL-80m_RLatLon0.09_PT047H.grib2 2026-05-05 02:52 531K
20260505T00Z_MSC_RDPS_WindU_IsbL-0001_RLatLon0.09_PT047H.grib2 2026-05-05 02:52 242K
20260505T00Z_MSC_RDPS_WindU_IsbL-0005_RLatLon0.09_PT047H.grib2 2026-05-05 02:52 327K
20260505T00Z_MSC_RDPS_WindU_IsbL-0010_RLatLon0.09_PT047H.grib2 2026-05-05 02:52 299K
20260505T00Z_MSC_RDPS_WindU_IsbL-0020_RLatLon0.09_PT047H.grib2 2026-05-05 02:52 316K
20260505T00Z_MSC_RDPS_WindU_IsbL-0030_RLatLon0.09_PT047H.grib2 2026-05-05 02:52 351K
20260505T00Z_MSC_RDPS_WindU_IsbL-0050_RLatLon0.09_PT047H.grib2 2026-05-05 02:52 379K
20260505T00Z_MSC_RDPS_WindU_IsbL-0100_RLatLon0.09_PT047H.grib2 2026-05-05 02:52 333K
20260505T00Z_MSC_RDPS_WindU_IsbL-0150_RLatLon0.09_PT047H.grib2 2026-05-05 02:52 395K
20260505T00Z_MSC_RDPS_WindU_IsbL-0175_RLatLon0.09_PT047H.grib2 2026-05-05 02:52 417K
20260505T00Z_MSC_RDPS_WindU_IsbL-0200_RLatLon0.09_PT047H.grib2 2026-05-05 02:52 335K
20260505T00Z_MSC_RDPS_WindU_IsbL-0225_RLatLon0.09_PT047H.grib2 2026-05-05 02:52 338K
20260505T00Z_MSC_RDPS_WindU_IsbL-0250_RLatLon0.09_PT047H.grib2 2026-05-05 02:52 336K
20260505T00Z_MSC_RDPS_WindU_IsbL-0275_RLatLon0.09_PT047H.grib2 2026-05-05 02:52 351K
20260505T00Z_MSC_RDPS_WindU_IsbL-0300_RLatLon0.09_PT047H.grib2 2026-05-05 02:52 350K
20260505T00Z_MSC_RDPS_WindU_IsbL-0350_RLatLon0.09_PT047H.grib2 2026-05-05 02:52 361K
20260505T00Z_MSC_RDPS_WindU_IsbL-0400_RLatLon0.09_PT047H.grib2 2026-05-05 02:52 467K
20260505T00Z_MSC_RDPS_WindU_IsbL-0450_RLatLon0.09_PT047H.grib2 2026-05-05 02:52 465K
20260505T00Z_MSC_RDPS_WindU_IsbL-0500_RLatLon0.09_PT047H.grib2 2026-05-05 02:52 467K
20260505T00Z_MSC_RDPS_WindU_IsbL-0550_RLatLon0.09_PT047H.grib2 2026-05-05 02:52 468K
20260505T00Z_MSC_RDPS_WindU_IsbL-0600_RLatLon0.09_PT047H.grib2 2026-05-05 02:52 477K
20260505T00Z_MSC_RDPS_WindU_IsbL-0650_RLatLon0.09_PT047H.grib2 2026-05-05 02:52 496K
20260505T00Z_MSC_RDPS_WindU_IsbL-0700_RLatLon0.09_PT047H.grib2 2026-05-05 02:52 517K
20260505T00Z_MSC_RDPS_WindU_IsbL-0750_RLatLon0.09_PT047H.grib2 2026-05-05 02:52 542K
20260505T00Z_MSC_RDPS_WindU_IsbL-0800_RLatLon0.09_PT047H.grib2 2026-05-05 02:52 569K
20260505T00Z_MSC_RDPS_WindU_IsbL-0850_RLatLon0.09_PT047H.grib2 2026-05-05 02:52 621K
20260505T00Z_MSC_RDPS_WindU_IsbL-0875_RLatLon0.09_PT047H.grib2 2026-05-05 02:52 648K
20260505T00Z_MSC_RDPS_WindU_IsbL-0900_RLatLon0.09_PT047H.grib2 2026-05-05 02:52 657K
20260505T00Z_MSC_RDPS_WindU_IsbL-0925_RLatLon0.09_PT047H.grib2 2026-05-05 02:52 665K
20260505T00Z_MSC_RDPS_WindU_IsbL-0950_RLatLon0.09_PT047H.grib2 2026-05-05 02:52 656K
20260505T00Z_MSC_RDPS_WindU_IsbL-0970_RLatLon0.09_PT047H.grib2 2026-05-05 02:52 653K
20260505T00Z_MSC_RDPS_WindU_IsbL-0985_RLatLon0.09_PT047H.grib2 2026-05-05 02:52 649K
20260505T00Z_MSC_RDPS_WindU_IsbL-1000_RLatLon0.09_PT047H.grib2 2026-05-05 02:52 782K
20260505T00Z_MSC_RDPS_WindU_IsbL-1015_RLatLon0.09_PT047H.grib2 2026-05-05 02:52 776K
20260505T00Z_MSC_RDPS_WindV_AGL-10m_RLatLon0.09_PT047H.grib2 2026-05-05 02:52 429K
20260505T00Z_MSC_RDPS_WindV_AGL-120m_RLatLon0.09_PT047H.grib2 2026-05-05 02:52 411K
20260505T00Z_MSC_RDPS_WindV_AGL-40m_RLatLon0.09_PT047H.grib2 2026-05-05 02:52 530K
20260505T00Z_MSC_RDPS_WindV_AGL-80m_RLatLon0.09_PT047H.grib2 2026-05-05 02:52 527K
20260505T00Z_MSC_RDPS_WindV_IsbL-0001_RLatLon0.09_PT047H.grib2 2026-05-05 02:52 292K
20260505T00Z_MSC_RDPS_WindV_IsbL-0005_RLatLon0.09_PT047H.grib2 2026-05-05 02:52 288K
20260505T00Z_MSC_RDPS_WindV_IsbL-0010_RLatLon0.09_PT047H.grib2 2026-05-05 02:52 300K
20260505T00Z_MSC_RDPS_WindV_IsbL-0020_RLatLon0.09_PT047H.grib2 2026-05-05 02:52 318K
20260505T00Z_MSC_RDPS_WindV_IsbL-0030_RLatLon0.09_PT047H.grib2 2026-05-05 02:52 314K
20260505T00Z_MSC_RDPS_WindV_IsbL-0050_RLatLon0.09_PT047H.grib2 2026-05-05 02:52 342K
20260505T00Z_MSC_RDPS_WindV_IsbL-0100_RLatLon0.09_PT047H.grib2 2026-05-05 02:52 329K
20260505T00Z_MSC_RDPS_WindV_IsbL-0150_RLatLon0.09_PT047H.grib2 2026-05-05 02:52 390K
20260505T00Z_MSC_RDPS_WindV_IsbL-0175_RLatLon0.09_PT047H.grib2 2026-05-05 02:52 415K
20260505T00Z_MSC_RDPS_WindV_IsbL-0200_RLatLon0.09_PT047H.grib2 2026-05-05 02:52 335K
20260505T00Z_MSC_RDPS_WindV_IsbL-0225_RLatLon0.09_PT047H.grib2 2026-05-05 02:52 336K
20260505T00Z_MSC_RDPS_WindV_IsbL-0250_RLatLon0.09_PT047H.grib2 2026-05-05 02:52 335K
20260505T00Z_MSC_RDPS_WindV_IsbL-0275_RLatLon0.09_PT047H.grib2 2026-05-05 02:52 349K
20260505T00Z_MSC_RDPS_WindV_IsbL-0300_RLatLon0.09_PT047H.grib2 2026-05-05 02:52 374K
20260505T00Z_MSC_RDPS_WindV_IsbL-0350_RLatLon0.09_PT047H.grib2 2026-05-05 02:52 384K
20260505T00Z_MSC_RDPS_WindV_IsbL-0400_RLatLon0.09_PT047H.grib2 2026-05-05 02:52 363K
20260505T00Z_MSC_RDPS_WindV_IsbL-0450_RLatLon0.09_PT047H.grib2 2026-05-05 02:52 463K
20260505T00Z_MSC_RDPS_WindV_IsbL-0500_RLatLon0.09_PT047H.grib2 2026-05-05 02:52 464K
20260505T00Z_MSC_RDPS_WindV_IsbL-0550_RLatLon0.09_PT047H.grib2 2026-05-05 02:52 465K
20260505T00Z_MSC_RDPS_WindV_IsbL-0600_RLatLon0.09_PT047H.grib2 2026-05-05 02:52 475K
20260505T00Z_MSC_RDPS_WindV_IsbL-0650_RLatLon0.09_PT047H.grib2 2026-05-05 02:52 494K
20260505T00Z_MSC_RDPS_WindV_IsbL-0700_RLatLon0.09_PT047H.grib2 2026-05-05 02:52 514K
20260505T00Z_MSC_RDPS_WindV_IsbL-0750_RLatLon0.09_PT047H.grib2 2026-05-05 02:52 538K
20260505T00Z_MSC_RDPS_WindV_IsbL-0800_RLatLon0.09_PT047H.grib2 2026-05-05 02:52 564K
20260505T00Z_MSC_RDPS_WindV_IsbL-0850_RLatLon0.09_PT047H.grib2 2026-05-05 02:52 614K
20260505T00Z_MSC_RDPS_WindV_IsbL-0875_RLatLon0.09_PT047H.grib2 2026-05-05 02:52 642K
20260505T00Z_MSC_RDPS_WindV_IsbL-0900_RLatLon0.09_PT047H.grib2 2026-05-05 02:52 653K
20260505T00Z_MSC_RDPS_WindV_IsbL-0925_RLatLon0.09_PT047H.grib2 2026-05-05 02:52 655K
20260505T00Z_MSC_RDPS_WindV_IsbL-0950_RLatLon0.09_PT047H.grib2 2026-05-05 02:52 653K
20260505T00Z_MSC_RDPS_WindV_IsbL-0970_RLatLon0.09_PT047H.grib2 2026-05-05 02:52 650K
20260505T00Z_MSC_RDPS_WindV_IsbL-0985_RLatLon0.09_PT047H.grib2 2026-05-05 02:52 646K
20260505T00Z_MSC_RDPS_WindV_IsbL-1000_RLatLon0.09_PT047H.grib2 2026-05-05 02:52 779K
20260505T00Z_MSC_RDPS_WindV_IsbL-1015_RLatLon0.09_PT047H.grib2 2026-05-05 02:52 771K